#timestamp,LO_Frequency,Hit,StdDev 
1704222015.4,286047000.4,P
1704222035.3,286047002.8,P
1704222055.1,286047002.5,N
1704222075.8,286047000.1,N
1704222095.7,286047000.2,N
1704222115.5,286047002.3,N
1704222135.4,286047002.1,N
1704222155.2,286047002.8,N
1704222175.0,286047000.3,N
1704222175.9,286047000.3,N
1704222195.8,286047001.0,N
1704222215.6,286047000.2,N
1704222235.5,286047002.4,N
1704222255.3,286047000.1,N
1704222275.1,286047000.1,N
1704222295.9,286047002.8,N
1704222315.7,286047000.1,N
1704222335.5,286047000.4,N
1704222355.4,286047000.9,N
1704222375.2,286047000.4,N
1704222395.1,286047001.2,N
1704222396.0,286047001.2,N
1704222415.8,286047001.1,N
1704222435.6,286047000.7,N
1704222455.5,286046998.5,N
1704222475.3,286046999.9,N
1704222495.2,286047000.9,N
1704222515.9,286046999.4,N
1704222535.7,286046998.8,N
1704222555.6,286046998.1,N
1704222575.4,286047001.1,N
1704222595.2,286047001.2,N
1704222615.1,286046998.1,N
1704222616.0,286046998.1,N
1704222635.8,286047001.1,N
1704222655.7,286046998.2,N
1704222675.5,286046998.4,N
1704222695.3,286046998.4,N
1704222715.2,286047001.2,N
1704222735.0,286047001.2,N
1704222735.9,286047001.2,N
1704222755.8,286046998.5,N
1704222775.6,286047001.0,N
1704222795.4,286047001.1,N
1704222815.3,286046998.4,N
1704222835.1,286046998.4,N
1704222855.8,286047000.8,N
1704222875.7,286046998.6,N
1704222895.5,286046998.7,N
1704222915.4,286046998.8,N
1704222935.2,286046998.5,N
1704222955.0,286047001.0,N
1704222955.9,286047001.0,N
1704222975.8,286046998.5,N
1704222995.6,286047001.1,N
1704223015.4,286046999.3,N
1704223035.3,286046999.2,N
1704223055.1,286046998.4,N
1704223075.9,286046999.2,N
1704223095.7,286046998.2,N
1704223115.5,286047000.6,N
1704223135.4,286047000.2,N
1704223155.2,286046999.8,N
1704223175.0,286047000.1,N
1704223176.0,286047000.1,N
1704223195.8,286047002.1,N
1704223215.6,286047004.4,Y
1704223235.5,286047003.6,P
1704223255.3,286047003.9,N
1704223275.1,286047003.5,N
1704223295.9,286047004.4,N
1704223315.7,286047001.6,N
1704223335.6,286047002.6,N
1704223355.4,286047004.0,N
1704223375.2,286047001.5,N
1704223425.1,286047001.8,E
1704223435.0,286047003.8,N
1704223435.9,286047003.8,P
1704223455.8,286047003.8,P
1704223475.6,286047004.4,Y
1704223495.4,286046997.2,P
1704223515.3,286046996.8,N
1704223535.1,286046996.0,N
1704223555.9,286046996.3,N
1704223575.7,286046993.5,N
1704223595.5,286046994.0,N
1704223615.4,286046993.4,N
1704223635.2,286046996.3,N
1704223655.0,286046995.6,N
1704223655.9,286046995.6,N
1704223675.8,286046995.9,N
1704223695.6,286046995.7,N
1704223715.5,286046995.7,N
1704223735.3,286046995.3,N
1704223755.1,286046997.8,N
1704223775.9,286046996.6,N
1704223795.7,286046999.2,N
1704223815.5,286046998.7,N
1704223835.4,286046999.0,N
1704223855.2,286046997.1,N
1704223875.1,286046997.6,N
1704223876.0,286046997.6,N
1704223895.8,286046999.6,N
1704223915.6,286046996.7,N
1704223935.5,286046997.3,N
1704223955.3,286046999.3,N
1704223975.1,286046998.9,N
1704223995.9,286046996.5,N
1704224015.7,286046997.7,N
1704224035.6,286046994.9,N
1704224055.4,286046995.3,N
1704224075.2,286046996.7,N
1704224095.1,286046996.9,N
1704224096.0,286046996.9,N
1704224115.8,286046997.4,N
1704224135.6,286046995.2,Y
1704224155.5,286046997.1,P
1704224175.3,286046997.2,P
1704224195.2,286046997.1,P
1704224215.9,286046997.4,Y
1704224235.7,286047000.6,P
1704224255.6,286047011.9,P
1704224275.4,286047011.9,N
1704224295.3,286046998.5,N
1704224315.1,286046999.4,N
1704224316.0,286046999.4,N
1704224335.8,286046997.0,N
1704224355.7,286046998.8,N
1704224375.5,286046998.7,N
1704224395.3,286046996.9,N
1704224415.2,286046998.9,N
1704224435.0,286046999.6,N
1704224435.9,286046999.6,N
1704224455.8,286046998.8,N
1704224475.6,286046998.9,N
1704224495.4,286047000.6,N
1704224515.3,286046999.7,N
1704224535.1,286047001.7,N
1704224555.8,286047002.0,N
1704224575.7,286046999.8,N
1704224595.5,286047000.3,N
1704224615.4,286047000.0,N
1704224635.2,286047000.6,N
1704224655.0,286047000.9,N
1704224655.9,286047000.9,N
1704224675.8,286046998.1,N
1704224695.6,286046998.9,N
1704224715.4,286046996.9,N
1704224735.3,286046997.5,N
1704224755.1,286046995.2,N
1704224775.9,286046995.9,N
1704224795.7,286046996.3,N
1704224815.5,286046993.8,N
1704224835.4,286046994.0,Y
1704224855.2,286046996.2,P
1704224875.1,286046996.3,N
1704224876.0,286046996.3,P
1704224895.8,286046993.4,Y
1704224915.6,286046996.8,P
1704224935.5,286046996.6,P
1704224955.3,286046997.0,P
1704224975.1,286046997.4,Y
1704224995.9,286047000.6,P
1704225015.7,286047000.8,N
1704225035.6,286046999.8,N
1704225055.4,286046998.5,N
1704225075.2,286046998.6,N
1704225095.1,286047001.0,N
1704225096.0,286047001.0,N
1704225115.8,286047000.8,N
1704225135.7,286047000.7,N
1704225155.5,286047001.0,N
1704225175.3,286047001.2,N
1704225195.2,286047001.0,N
1704225215.0,286047000.6,N
1704225215.9,286047000.6,N
1704225235.8,286047000.6,N
1704225255.6,286046999.7,N
1704225275.4,286047002.3,N
1704225295.3,286047002.6,N
1704225315.1,286047001.4,N
1704225335.8,286047001.4,N
1704225355.7,286047001.5,N
1704225375.5,286047002.0,N
1704225395.4,286047000.5,N
1704225415.2,286046998.3,N
1704225435.0,286046998.6,N
1704225435.9,286046998.6,N
1704225455.8,286046999.2,N
1704225475.6,286046996.5,N
1704225495.5,286046996.9,N
1704225515.3,286046997.1,N
1704225535.1,286046997.7,N
1704225555.9,286046997.2,N
1704225575.7,286046997.5,N
1704225595.6,286046998.0,N
